Starlink 32615

operational
NORAD ID: 62034 Int'l Des: 2024-216 Owner: SPXS Country: US Constellation: starlink
LEOCIRCULAR

Starlink 32615について

説明を読み込み中...

リアルタイム位置

3D地球を読み込み中...

次回通過

高度履歴

Altitude vs Time

uPlot chart will show altitude changes over time

軌道要素

1 62034U 24216C 25352.41003683 .00033115 00000-0 12052-2 0 9997
2 62034 43.0048 355.4681 0002732 294.0418 66.0148 15.27640362 60287
Epoch: Dec 18, 2025 • Age: 22 hours

現在のステータス

高度 494.3 km
速度 7.62 km/s
衛星直下点 -43.09°S, 65°E
打ち上げ日 Nov 21, 2024
運用期間 1 years
タイプ internet

技術仕様

分類 Payload
質量 730.00 kg
乾燥質量 700.00 kg
総質量 730.00 kg
長さ 0.30 m
直径 4.10 m
スパン 29.00 m
形状 Box + pan
製造者 SPXS
バスタイプ Starlink V2M
フェーズステータス In Orbit
所有者/国 SPXS/US

大規模コンステレーション

Loading constellations...